カタログに戻る

NOAA 2

ITOS-D

運用中気象SSO
NORAD 6235·PAYLOAD·🇺🇸 United States

打ち上げ Oct 15, 1972 から Vandenberg Space Force Base

Loading…

次のパス (今後24時間)

TLE

最新Source: Space-Track

元期: Sep 14, 2026, 13:18 UTC

1 06235U 72082A   26257.55433236 -.00000041  00000-0  37206-4 0  9996
2 06235 102.0072 277.1012 0004124   5.9018 162.0194 12.53217781466145

AllMySatでNOAA 2をリアルタイム追跡

Download on the App Store